, FL

(GMT )
Whiting Fld NAS

Weather History for KNSE - March, 2014

Change the Weather History Date:

Sunday, March 9, 2014

  Actual Average Record
Temperature  
Mean Temperature 60 °F -  
Max Temperature 73 °F 67 °F 81 °F (1999)
Min Temperature 46 °F 47 °F 39 °F (1998)
Degree Days  
Heating Degree Days 6    
Growing Degree Days 10 (Base 50)    
Moisture  
Dew Point 49 °F    
Average Humidity 77    
Maximum Humidity 97    
Minimum Humidity 40    
Precipitation  
Precipitation 0.00 in - - ()
Sea Level Pressure  
Sea Level Pressure 30.15 in    
Wind  
Wind Speed 3 mph (NW)    
Max Wind Speed 8 mph    
Max Gust Speed -    
Visibility 7 miles    
Events Fog    
Averages and records for this station are not official NWS values.
T = Trace of Precipitation, MM = Missing Value Source: NWS Daily Summary

Daily Weather History Graph

Daily Weather History Graph

Search for Another Location

Airport or City:

Trip Planner

Search our weather history database for the weather conditions in past years. The results will help you decide how hot, cold, wet, or windy it might be!

Date:

Astronomy

Mar. 09, 2014 Rise Set
Actual Time 7:05 AM CDT 6:52 PM CDT
Civil Twilight 6:41 AM CDT 7:16 PM CDT
Nautical Twilight 6:13 AM CDT 7:44 PM CDT
Astronomical Twilight 5:45 AM CDT 8:12 PM CDT
Moon 1:01 PM CDT (3/9) 3:13 AM CDT (3/9)
Length of Visible Light 12h 35m
Length of Day
11h 47m
First Quarter, 61% of the Moon is Illuminated
Mar 9
First Quarter
Mar 16
Full
Mar 23
Last Quarter
Mar 30
New
Apr 7
First Quarter

Hourly Weather History & Observations

Time (CDT) Temp. Dew Point Humidity Pressure Visibility Wind Dir Wind Speed Gust Speed Precip Events Conditions
12:56 AM 50.0 °F 48.0 °F 93% 30.13 in 6.0 mi East 3.5 mph - N/A   Scattered Clouds
1:56 AM 50.0 °F 48.0 °F 93% 30.12 in 6.0 mi Calm Calm - N/A   Scattered Clouds
3:47 AM 48.9 °F 46.9 °F 93% 30.16 in 1.8 mi Calm Calm - N/A   Clear
3:56 AM 48.9 °F 46.9 °F 93% 30.13 in 1.0 mi Calm Calm - N/A   Scattered Clouds
4:35 AM 50.0 °F 48.0 °F 93% 30.17 in 2.0 mi Calm Calm - 0.00 in   Clear
4:52 AM 48.2 °F 46.4 °F 93% 30.16 in 4.0 mi Calm Calm - 0.00 in   Scattered Clouds
4:56 AM 48.9 °F 46.9 °F 93% 30.12 in 4.0 mi ENE 3.5 mph - 0.00 in   Scattered Clouds
5:56 AM 48.0 °F 46.0 °F 93% 30.14 in 3.0 mi North 3.5 mph - 0.00 in   Clear
6:08 AM 48.0 °F 46.0 °F 93% 30.19 in 1.8 mi Calm Calm - N/A   Clear
6:19 AM 48.0 °F 46.0 °F 93% 30.20 in 3.0 mi Calm Calm - N/A   Clear
6:30 AM 46.9 °F 46.0 °F 97% 30.21 in 1.2 mi Calm Calm - N/A   Clear
6:38 AM 46.9 °F 45.0 °F 93% 30.21 in 0.5 mi WNW 4.6 mph - N/A Fog Fog
6:48 AM 48.0 °F 46.0 °F 93% 30.21 in 2.5 mi North 3.5 mph - N/A   Clear
6:56 AM 46.9 °F 46.0 °F 97% 30.17 in 3.0 mi North 3.5 mph - N/A   Clear
7:56 AM 50.0 °F 48.0 °F 93% 30.16 in 4.0 mi NNE 3.5 mph - N/A   Clear
8:56 AM 55.9 °F 52.0 °F 87% 30.18 in 7.0 mi Calm Calm - N/A   Clear
9:56 AM 63.0 °F 52.0 °F 67% 30.19 in 10.0 mi Variable 4.6 mph - 0.00 in   Clear
10:56 AM 64.0 °F 52.0 °F 65% 30.20 in 10.0 mi Variable 3.5 mph - N/A   Partly Cloudy
11:56 AM 68.0 °F 51.1 °F 55% 30.19 in 10.0 mi Calm Calm - N/A   Clear
12:56 PM 71.1 °F 52.0 °F 51% 30.17 in 10.0 mi NW 8.1 mph - N/A   Scattered Clouds
1:56 PM 72.0 °F 50.0 °F 46% 30.14 in 10.0 mi WNW 5.8 mph - N/A   Clear
2:56 PM 73.0 °F 48.9 °F 42% 30.11 in 10.0 mi NW 8.1 mph - N/A   Clear
3:56 PM 73.9 °F 48.0 °F 40% 30.09 in 10.0 mi NW 3.5 mph - N/A   Clear
4:56 PM 72.0 °F 48.9 °F 44% 30.09 in 10.0 mi NW 4.6 mph - N/A   Clear
5:56 PM 73.0 °F 48.9 °F 42% 30.08 in 10.0 mi NNW 4.6 mph - N/A   Clear
6:56 PM 64.9 °F 50.0 °F 58% 30.09 in 10.0 mi WNW 4.6 mph - N/A   Clear
7:56 PM 60.1 °F 51.1 °F 72% 30.09 in 10.0 mi Calm Calm - N/A   Clear
8:56 PM 60.1 °F 52.0 °F 75% 30.13 in 10.0 mi SW 8.1 mph - N/A   Clear
9:56 PM 59.0 °F 52.0 °F 78% 30.14 in 10.0 mi WSW 6.9 mph - N/A   Clear
10:56 PM 57.0 °F 51.1 °F 81% 30.13 in 10.0 mi West 5.8 mph - N/A   Clear
11:56 PM 55.0 °F 50.0 °F 83% 30.12 in 10.0 mi West 5.8 mph - N/A   Clear
12:56 AM 54.0 °F 50.0 °F 86% 30.11 in 10.0 mi North 3.5 mph - N/A   Clear